Lee's Summit, MO

2:02 AM CST on January 20, 2018 (GMT -0600)
Lee's Summit Municipal

Weather History for KLXT - April, 2013

Change the Weather History Date:

Thursday, April 11, 2013

  Actual Average (KMKC) Record (KMKC)
Temperature  
Mean Temperature 37 °F -  
Max Temperature 41 °F 62 °F 78 °F (2003)
Min Temperature 33 °F 43 °F 33 °F (1997)
Degree Days  
Heating Degree Days 28    
Moisture  
Dew Point 29 °F    
Average Humidity 75    
Maximum Humidity 93    
Minimum Humidity 55    
Precipitation  
Precipitation 0.00 in - - ()
Sea Level Pressure  
Sea Level Pressure 29.77 in    
Wind  
Wind Speed 11 mph (West)    
Max Wind Speed 16 mph    
Max Gust Speed 24 mph    
Visibility 10 miles    
Events Snow    
Averages and records for this station are not official NWS values.
T = Trace of Precipitation, MM = Missing Value Source: NWS Daily Summary

Daily Weather History Graph

Daily Weather History Graph

Search for Another Location

Airport or City:

Trip Planner

Search our weather history database for the weather conditions in past years. The results will help you decide how hot, cold, wet, or windy it might be!

Date:

Astronomy

Apr. 11, 2013 Rise Set
Actual Time 6:46 AM CDT 7:51 PM CDT
Civil Twilight 6:19 AM CDT 8:18 PM CDT
Nautical Twilight 5:46 AM CDT 8:51 PM CDT
Astronomical Twilight 5:12 AM CDT 9:25 PM CDT
Moon 7:19 AM CDT (4/11) 9:25 PM CDT (4/11)
Length of Visible Light 13h 59m
Length of Day
13h 04m
New Moon, 2% of the Moon is Illuminated
Apr 11
New Moon
Apr 18
First Quarter
Apr 25
Full
May 2
Last Quarter
May 9
New

Hourly Weather History & Observations

Time (CDT) Temp. Windchill Dew Point Humidity Pressure Visibility Wind Dir Wind Speed Gust Speed Precip Events Conditions
12:46 AM 39.2 °F 32.0 °F 35.6 °F 87% 29.79 in 10.0 mi West 11.5 mph 19.6 mph N/A   Overcast
12:53 AM 37.9 °F 29.2 °F 35.1 °F 89% 29.81 in 10.0 mi West 15.0 mph 21.9 mph N/A   Overcast
1:01 AM 37.4 °F 30.3 °F 35.6 °F 93% 29.78 in 10.0 mi West 10.4 mph 20.7 mph N/A   Overcast
1:11 AM 37.4 °F 28.9 °F 35.6 °F 93% 29.79 in 9.0 mi West 13.8 mph - N/A   Overcast
1:53 AM 36.0 °F 27.5 °F 34.0 °F 93% 29.81 in 10.0 mi West 12.7 mph 20.7 mph N/A   Overcast
2:53 AM 36.0 °F 28.0 °F 33.1 °F 89% 29.78 in 7.0 mi West 11.5 mph - N/A   Overcast
3:23 AM 35.6 °F 26.6 °F 33.8 °F 93% 29.74 in 10.0 mi WNW 13.8 mph 19.6 mph N/A   Overcast
3:53 AM 36.0 °F 27.5 °F 32.0 °F 86% 29.77 in 10.0 mi WNW 12.7 mph 18.4 mph N/A   Overcast
4:21 AM 35.6 °F 28.6 °F 32.0 °F 87% 29.74 in 10.0 mi West 9.2 mph - N/A   Overcast
4:53 AM 35.1 °F 27.9 °F 32.0 °F 89% 29.77 in 9.0 mi West 9.2 mph - N/A   Overcast
5:20 AM 35.6 °F 29.9 °F 32.0 °F 87% 29.76 in 10.0 mi West 6.9 mph - 0.00 in Snow Light Snow
5:36 AM 33.8 °F 25.8 °F 30.2 °F 87% 29.76 in 5.0 mi West 10.4 mph - 0.00 in Snow Light Snow
5:51 AM 33.8 °F 27.7 °F 30.2 °F 87% 29.78 in 9.0 mi WSW 6.9 mph 16.1 mph 0.00 in   Overcast
5:53 AM 34.0 °F 25.5 °F 30.9 °F 89% 29.79 in 9.0 mi West 11.5 mph - 0.00 in   Overcast
6:53 AM 34.0 °F 26.6 °F 28.9 °F 82% 29.77 in 10.0 mi West 9.2 mph - N/A   Overcast
7:30 AM 33.8 °F 27.7 °F 28.4 °F 81% 29.78 in 10.0 mi WSW 6.9 mph 17.3 mph N/A   Overcast
7:53 AM 34.0 °F 26.0 °F 27.0 °F 75% 29.80 in 10.0 mi West 10.4 mph - N/A   Overcast
8:53 AM 34.0 °F 27.2 °F 27.0 °F 75% 29.77 in 10.0 mi WSW 8.1 mph - N/A   Overcast
9:53 AM 34.0 °F 27.2 °F 27.0 °F 75% 29.76 in 10.0 mi West 8.1 mph - N/A   Overcast
10:53 AM 34.0 °F 26.0 °F 27.0 °F 75% 29.76 in 10.0 mi West 10.4 mph 20.7 mph N/A   Overcast
12:53 PM 36.0 °F 26.3 °F 25.0 °F 64% 29.77 in 10.0 mi WSW 16.1 mph 24.2 mph N/A   Overcast
1:48 PM 37.4 °F 29.3 °F 26.6 °F 65% 29.75 in 10.0 mi WSW 12.7 mph 21.9 mph N/A   Overcast
1:53 PM 37.9 °F 30.9 °F 26.1 °F 62% 29.76 in 10.0 mi WSW 10.4 mph 20.7 mph N/A   Overcast
2:53 PM 39.0 °F 30.6 °F 26.1 °F 60% 29.76 in 10.0 mi West 15.0 mph 20.7 mph N/A   Overcast
3:53 PM 39.9 °F 32.9 °F 26.1 °F 58% 29.74 in 10.0 mi West 11.5 mph 21.9 mph N/A   Overcast
4:53 PM 41.0 °F 34.3 °F 26.1 °F 55% 29.73 in 10.0 mi West 11.5 mph 19.6 mph N/A   Overcast
5:53 PM 39.9 °F 32.1 °F 25.0 °F 55% 29.74 in 10.0 mi West 13.8 mph - N/A   Overcast
6:53 PM 39.9 °F 32.9 °F 25.0 °F 55% 29.76 in 10.0 mi West 11.5 mph - N/A   Overcast
7:53 PM 39.0 °F 32.3 °F 25.0 °F 57% 29.77 in 10.0 mi West 10.4 mph - N/A   Overcast
8:53 PM 39.0 °F 32.3 °F 25.0 °F 57% 29.78 in 10.0 mi West 10.4 mph 20.7 mph N/A   Overcast
9:53 PM 37.9 °F 32.1 °F 25.0 °F 60% 29.79 in 10.0 mi West 8.1 mph - N/A   Overcast
10:53 PM 37.9 °F 32.1 °F 24.1 °F 57% 29.79 in 10.0 mi West 8.1 mph - N/A   Overcast
11:53 PM 37.0 °F 31.6 °F 25.0 °F 62% 29.79 in 10.0 mi West 6.9 mph - N/A   Clear